Location: Newark
(13.8117°N, 3.6025°W)
Time: 08:15:18
(UTC+00:00)

Vanguard 2 - Pass Details

Date: 27 August 2019
Orbit: 554 x 2937 km, 32.9° (Epoch: 21 September)

Event Time Altitude Azimuth Distance (km) Brightness Sun altitude
Rises 08:37:19 0° 234° (SW) 2,973 10.1 36.5°
Reaches altitude 10° 08:39:47 10° 232° (SW) 1,924 9.3 37.1°
Maximum altitude 08:43:55 73° 148° (SSE) 575 7.7 38.1°
Drops below altitude 10° 08:47:57 10° 63° (ENE) 1,882 10.5 39.1°
Sets 08:50:21 0° 61° (ENE) 2,901 11.2 39.6°
